Year,Month,Day,Hour,Minute,Value (Times are PST for barometer in hPa)
2019,05,16,00,00,1003.42
2019,05,16,00,01,1003.39
2019,05,16,00,02,1003.39
2019,05,16,00,03,1003.32
2019,05,16,00,04,1003.32
2019,05,16,00,05,1003.29
2019,05,16,00,06,1003.25
2019,05,16,00,07,1003.25
2019,05,16,00,08,1003.22
2019,05,16,00,09,1003.22
2019,05,16,00,10,1003.22
2019,05,16,00,11,1003.25
2019,05,16,00,12,1003.29
2019,05,16,00,13,1003.25
2019,05,16,00,14,1003.29
2019,05,16,00,15,1003.22
2019,05,16,00,16,1003.22
2019,05,16,00,17,1003.18
2019,05,16,00,18,1003.18
2019,05,16,00,19,1003.15
2019,05,16,00,20,1003.15
2019,05,16,00,21,1003.08
2019,05,16,00,22,1003.12
2019,05,16,00,23,1003.15
2019,05,16,00,24,1003.15
2019,05,16,00,25,1003.15
2019,05,16,00,26,1003.15
2019,05,16,00,27,1003.12
2019,05,16,00,28,1003.08
2019,05,16,00,29,1003.08
2019,05,16,00,30,1003.01
2019,05,16,00,31,1003.05
2019,05,16,00,32,1002.98
2019,05,16,00,33,1002.98
2019,05,16,00,34,1002.98
2019,05,16,00,35,1002.98
2019,05,16,00,36,1002.98
2019,05,16,00,37,1002.95
2019,05,16,00,38,1002.91
2019,05,16,00,39,1002.91
2019,05,16,00,40,1002.91
2019,05,16,00,41,1002.95
2019,05,16,00,42,1002.98
2019,05,16,00,43,1002.91
2019,05,16,00,44,1002.91
2019,05,16,00,45,1002.91
2019,05,16,00,46,1002.91
2019,05,16,00,47,1002.91
2019,05,16,00,48,1002.91
2019,05,16,00,49,1002.95
2019,05,16,00,50,1002.95
2019,05,16,00,51,1002.88
2019,05,16,00,52,1002.88
2019,05,16,00,53,1002.88
2019,05,16,00,54,1002.88
2019,05,16,00,55,1002.85
2019,05,16,00,56,1002.85
2019,05,16,00,57,1002.88
2019,05,16,00,58,1002.85
2019,05,16,00,59,1002.85
2019,05,16,01,00,1002.81
2019,05,16,01,01,1002.85
2019,05,16,01,02,1002.78
2019,05,16,01,03,1002.78
2019,05,16,01,04,1002.78
2019,05,16,01,05,1002.78
2019,05,16,01,06,1002.78
2019,05,16,01,07,1002.71
2019,05,16,01,08,1002.74
2019,05,16,01,09,1002.71
2019,05,16,01,10,1002.74
2019,05,16,01,11,1002.74
2019,05,16,01,12,1002.74
2019,05,16,01,13,1002.74
2019,05,16,01,14,1002.78
2019,05,16,01,15,1002.78
2019,05,16,01,16,1002.81
2019,05,16,01,17,1002.78
2019,05,16,01,18,1002.74
2019,05,16,01,19,1002.71
2019,05,16,01,20,1002.68
2019,05,16,01,21,1002.64
2019,05,16,01,22,1002.61
2019,05,16,01,23,1002.57
2019,05,16,01,24,1002.54
2019,05,16,01,25,1002.54
2019,05,16,01,26,1002.57
2019,05,16,01,27,1002.57
2019,05,16,01,28,1002.61
2019,05,16,01,29,1002.57
2019,05,16,01,30,1002.54
2019,05,16,01,31,1002.61
2019,05,16,01,32,1002.61
2019,05,16,01,33,1002.61
2019,05,16,01,34,1002.61
2019,05,16,01,35,1002.68
2019,05,16,01,36,1002.68
2019,05,16,01,37,1002.61
2019,05,16,01,38,1002.64
2019,05,16,01,39,1002.57
2019,05,16,01,40,1002.54
2019,05,16,01,41,1002.61
2019,05,16,01,42,1002.61
2019,05,16,01,43,1002.57
2019,05,16,01,44,1002.61
2019,05,16,01,45,1002.61
2019,05,16,01,46,1002.57
2019,05,16,01,47,1002.54
2019,05,16,01,48,1002.54
2019,05,16,01,49,1002.51
2019,05,16,01,50,1002.54
2019,05,16,01,51,1002.47
2019,05,16,01,52,1002.47
2019,05,16,01,53,1002.44
2019,05,16,01,54,1002.47
2019,05,16,01,55,1002.47
2019,05,16,01,56,1002.41
2019,05,16,01,57,1002.44
2019,05,16,01,58,1002.37
2019,05,16,01,59,1002.44
2019,05,16,02,00,1002.47
2019,05,16,02,01,1002.47
2019,05,16,02,02,1002.47
2019,05,16,02,03,1002.44
2019,05,16,02,04,1002.44
2019,05,16,02,05,1002.51
2019,05,16,02,06,1002.51
2019,05,16,02,07,1002.47
2019,05,16,02,08,1002.47
2019,05,16,02,09,1002.47
2019,05,16,02,10,1002.47
2019,05,16,02,11,1002.47
2019,05,16,02,12,1002.51
2019,05,16,02,13,1002.47
2019,05,16,02,14,1002.51
2019,05,16,02,15,1002.51
2019,05,16,02,16,1002.51
2019,05,16,02,17,1002.51
2019,05,16,02,18,1002.51
2019,05,16,02,19,1002.51
2019,05,16,02,20,1002.47
2019,05,16,05,22,1001.33
2019,05,16,05,23,1001.36
2019,05,16,05,24,1001.36
2019,05,16,05,25,1001.29
2019,05,16,05,26,1001.32
2019,05,16,05,27,1001.25
2019,05,16,05,28,1001.29
2019,05,16,05,29,1001.32
2019,05,16,05,30,1001.32
2019,05,16,05,31,1001.29
2019,05,16,05,32,1001.32
2019,05,16,05,33,1001.32
2019,05,16,05,34,1001.29
2019,05,16,05,35,1001.25
2019,05,16,05,36,1001.29
2019,05,16,05,37,1001.29
2019,05,16,05,38,1001.29
2019,05,16,05,39,1001.32
2019,05,16,05,40,1001.32
2019,05,16,05,41,1001.25
2019,05,16,05,42,1001.32
2019,05,16,05,43,1001.29
2019,05,16,05,44,1001.25
2019,05,16,05,45,1001.32
2019,05,16,05,46,1001.25
2019,05,16,05,47,1001.32
2019,05,16,05,48,1001.25
2019,05,16,05,49,1001.25
2019,05,16,05,50,1001.22
2019,05,16,05,51,1001.25
2019,05,16,05,52,1001.22
2019,05,16,05,53,1001.15
2019,05,16,05,54,1001.19
2019,05,16,05,55,1001.15
2019,05,16,05,56,1001.15
2019,05,16,05,57,1001.12
2019,05,16,05,58,1001.19
2019,05,16,05,59,1001.19
2019,05,16,06,00,1001.22
2019,05,16,06,01,1001.19
2019,05,16,06,02,1001.19
2019,05,16,06,03,1001.19
2019,05,16,06,04,1001.19
2019,05,16,06,05,1001.19
2019,05,16,06,06,1001.15
2019,05,16,06,07,1001.12
2019,05,16,06,08,1001.15
2019,05,16,06,09,1001.19
2019,05,16,06,10,1001.12
2019,05,16,06,11,1001.12
2019,05,16,06,12,1001.15
2019,05,16,06,13,1001.15
2019,05,16,06,14,1001.12
2019,05,16,06,15,1001.15
2019,05,16,06,16,1001.08
2019,05,16,06,17,1001.12
2019,05,16,06,18,1001.05
2019,05,16,06,19,1001.08
2019,05,16,06,20,1001.08
2019,05,16,06,21,1001.05
2019,05,16,06,22,1001.08
2019,05,16,06,23,1001.05
2019,05,16,06,24,1001.05
2019,05,16,06,25,1001.05
2019,05,16,06,26,1001.05
2019,05,16,06,27,1000.95
2019,05,16,06,28,1000.95
2019,05,16,06,29,1000.95
2019,05,16,06,30,1000.92
2019,05,16,06,31,1000.92
2019,05,16,06,32,1000.92
2019,05,16,06,33,1000.92
2019,05,16,06,34,1000.92
2019,05,16,06,35,1000.85
2019,05,16,06,36,1000.81
2019,05,16,06,37,1000.88
2019,05,16,06,38,1000.85
2019,05,16,06,39,1000.78
2019,05,16,06,40,1000.68
2019,05,16,06,41,1000.58
2019,05,16,06,42,1000.68
2019,05,16,06,43,1000.64
2019,05,16,06,44,1000.51
2019,05,16,06,45,1000.64
2019,05,16,06,46,1000.61
2019,05,16,06,47,1000.75
2019,05,16,06,48,1000.71
2019,05,16,06,49,1000.61
2019,05,16,06,50,1000.75
2019,05,16,06,51,1000.64
2019,05,16,06,52,1000.64
2019,05,16,06,53,1000.64
2019,05,16,06,54,1000.71
2019,05,16,06,55,1000.64
2019,05,16,06,56,1000.54
2019,05,16,06,57,1000.51
2019,05,16,06,58,1000.51
2019,05,16,06,59,1000.54
2019,05,16,07,00,1000.51
2019,05,16,07,01,1000.44
2019,05,16,07,02,1000.37
2019,05,16,07,03,1000.51
2019,05,16,07,04,1000.48
2019,05,16,07,05,1000.51
2019,05,16,07,06,1000.51
2019,05,16,07,07,1000.54
2019,05,16,07,08,1000.58
2019,05,16,07,09,1000.54
2019,05,16,07,10,1000.48
2019,05,16,07,11,1000.54
2019,05,16,07,12,1000.48
2019,05,16,07,13,1000.51
2019,05,16,07,14,1000.48
2019,05,16,07,15,1000.51
2019,05,16,07,16,1000.48
2019,05,16,07,17,1000.51
2019,05,16,07,18,1000.54
2019,05,16,07,19,1000.51
2019,05,16,07,20,1000.48
2019,05,16,07,21,1000.44
2019,05,16,07,22,1000.44
2019,05,16,07,23,1000.34
2019,05,16,07,24,1000.41
2019,05,16,07,25,1000.37
2019,05,16,07,26,1000.37
2019,05,16,07,27,1000.37
2019,05,16,07,28,1000.44
2019,05,16,07,29,1000.41
2019,05,16,07,30,1000.37
2019,05,16,07,31,1000.37
2019,05,16,07,32,1000.37
2019,05,16,07,33,1000.34
2019,05,16,07,34,1000.34
2019,05,16,07,35,1000.37
2019,05,16,07,36,1000.37
2019,05,16,07,37,1000.37
2019,05,16,07,38,1000.44
2019,05,16,07,39,1000.37
2019,05,16,07,40,1000.48
2019,05,16,07,41,1000.44
2019,05,16,07,42,1000.44
2019,05,16,07,43,1000.44
2019,05,16,07,44,1000.44
2019,05,16,07,45,1000.41
2019,05,16,07,46,1000.44
2019,05,16,07,47,1000.44
2019,05,16,07,48,1000.37
2019,05,16,07,49,1000.41
2019,05,16,07,50,1000.44
2019,05,16,07,51,1000.41
2019,05,16,07,52,1000.41
2019,05,16,07,53,1000.41
2019,05,16,07,54,1000.51
2019,05,16,07,55,1000.48
2019,05,16,07,56,1000.48
2019,05,16,07,57,1000.51
2019,05,16,07,58,1000.51
2019,05,16,07,59,1000.58
2019,05,16,08,00,1000.58
2019,05,16,08,01,1000.54
2019,05,16,08,02,1000.54
2019,05,16,08,03,1000.58
2019,05,16,08,04,1000.54
2019,05,16,08,05,1000.61
2019,05,16,08,06,1000.61
2019,05,16,08,07,1000.61
2019,05,16,08,08,1000.64
2019,05,16,08,09,1000.58
2019,05,16,08,10,1000.58
2019,05,16,08,11,1000.64
2019,05,16,08,12,1000.61
2019,05,16,08,13,1000.58
2019,05,16,08,14,1000.61
2019,05,16,08,15,1000.61
2019,05,16,08,16,1000.64
2019,05,16,08,17,1000.61
2019,05,16,08,18,1000.64
2019,05,16,08,19,1000.68
2019,05,16,08,20,1000.68
2019,05,16,08,21,1000.75
2019,05,16,08,22,1000.75
2019,05,16,08,23,1000.75
2019,05,16,08,24,1000.64
2019,05,16,08,25,1000.71
2019,05,16,08,26,1000.71
2019,05,16,08,27,1000.68
2019,05,16,08,28,1000.64
2019,05,16,08,29,1000.64
2019,05,16,08,30,1000.58
2019,05,16,08,31,1000.54
2019,05,16,08,32,1000.58
2019,05,16,08,33,1000.64
2019,05,16,08,34,1000.64
2019,05,16,08,35,1000.64
2019,05,16,08,36,1000.64
2019,05,16,08,37,1000.61
2019,05,16,08,38,1000.68
2019,05,16,08,39,1000.68
2019,05,16,08,40,1000.68
2019,05,16,08,41,1000.71
2019,05,16,08,42,1000.75
2019,05,16,08,43,1000.75
2019,05,16,08,44,1000.71
2019,05,16,08,45,1000.71
2019,05,16,08,46,1000.71
2019,05,16,08,47,1000.71
2019,05,16,08,48,1000.75
2019,05,16,08,49,1000.75
2019,05,16,08,50,1000.78
2019,05,16,08,51,1000.85
2019,05,16,08,52,1000.88
2019,05,16,08,53,1000.88
2019,05,16,08,54,1000.92
2019,05,16,08,55,1000.92
2019,05,16,08,56,1000.95
2019,05,16,08,57,1000.88
2019,05,16,08,58,1000.92
2019,05,16,08,59,1000.88
2019,05,16,09,00,1000.81
2019,05,16,09,01,1000.85
2019,05,16,09,02,1000.81
2019,05,16,09,03,1000.85
2019,05,16,09,04,1000.88
2019,05,16,09,05,1000.88
2019,05,16,09,06,1000.85
2019,05,16,09,07,1000.85
2019,05,16,09,08,1000.85
2019,05,16,09,09,1000.81
2019,05,16,09,10,1000.85
2019,05,16,09,11,1000.85
2019,05,16,09,12,1000.88
2019,05,16,09,13,1000.81
2019,05,16,09,14,1000.88
2019,05,16,09,15,1000.88
2019,05,16,09,16,1000.88
2019,05,16,09,17,1000.85
2019,05,16,09,18,1000.81
2019,05,16,09,19,1000.81
2019,05,16,09,20,1000.85
2019,05,16,09,21,1000.81
2019,05,16,09,22,1000.85
2019,05,16,09,23,1000.81
2019,05,16,09,24,1000.85
2019,05,16,09,25,1000.81
2019,05,16,09,26,1000.81
2019,05,16,09,27,1000.88
2019,05,16,09,28,1000.85
2019,05,16,09,29,1000.88
2019,05,16,09,30,1000.81
2019,05,16,09,31,1000.85
2019,05,16,09,32,1000.85
2019,05,16,09,33,1000.85
2019,05,16,09,34,1000.85
2019,05,16,09,35,1000.85
2019,05,16,09,36,1000.81
2019,05,16,09,37,1000.85
2019,05,16,09,38,1000.85
2019,05,16,09,39,1000.81
2019,05,16,09,40,1000.81
2019,05,16,09,41,1000.85
2019,05,16,09,42,1000.88
2019,05,16,09,43,1000.85
2019,05,16,09,44,1000.85
2019,05,16,09,45,1000.85
2019,05,16,09,46,1000.88
2019,05,16,09,47,1000.88
2019,05,16,09,48,1000.92
2019,05,16,09,49,1000.95
2019,05,16,09,50,1000.95
2019,05,16,09,51,1000.95
2019,05,16,09,52,1000.98
2019,05,16,09,53,1001.02
2019,05,16,09,54,1000.98
2019,05,16,09,55,1000.95
2019,05,16,09,56,1000.98
2019,05,16,09,57,1000.98
2019,05,16,09,58,1000.98
2019,05,16,09,59,1000.98
2019,05,16,10,00,1000.95
2019,05,16,10,01,1001.05
2019,05,16,10,02,1000.95
2019,05,16,10,03,1000.98
2019,05,16,10,04,1000.95
2019,05,16,10,05,1000.95
2019,05,16,10,06,1001.02
2019,05,16,10,07,1000.98
2019,05,16,10,08,1001.02
2019,05,16,10,09,1000.98
2019,05,16,10,10,1000.95
2019,05,16,10,11,1001.05
2019,05,16,10,12,1001.05
2019,05,16,10,13,1001.08
2019,05,16,10,14,1001.15
2019,05,16,10,15,1001.19
2019,05,16,10,16,1001.15
2019,05,16,10,17,1001.15
2019,05,16,10,18,1001.12
2019,05,16,10,19,1001.15
2019,05,16,10,20,1001.15
2019,05,16,10,21,1001.12
2019,05,16,10,22,1001.15
2019,05,16,10,23,1001.15
2019,05,16,10,24,1001.15
2019,05,16,10,25,1001.12
2019,05,16,10,26,1001.15
2019,05,16,10,27,1001.08
2019,05,16,10,28,1001.08
2019,05,16,10,29,1001.15
2019,05,16,10,30,1001.12
2019,05,16,10,31,1001.12
2019,05,16,10,32,1001.15
2019,05,16,10,33,1001.12
2019,05,16,10,34,1001.15
2019,05,16,10,35,1001.15
2019,05,16,10,36,1001.12
2019,05,16,10,37,1001.12
2019,05,16,10,38,1001.08
2019,05,16,10,39,1001.12
2019,05,16,10,40,1001.12
2019,05,16,10,41,1001.08
2019,05,16,10,42,1001.12
2019,05,16,10,43,1001.05
2019,05,16,10,44,1001.08
2019,05,16,10,45,1001.05
2019,05,16,10,46,1001.02
2019,05,16,10,47,1001.05
2019,05,16,10,48,1001.05
2019,05,16,10,49,1001.05
2019,05,16,10,50,1001.05
2019,05,16,10,51,1001.02
2019,05,16,10,52,1001.02
2019,05,16,10,53,1001.05
2019,05,16,10,54,1001.05
2019,05,16,10,55,1001.02
2019,05,16,10,56,1001.05
2019,05,16,10,57,1001.02
2019,05,16,10,58,1001.02
2019,05,16,10,59,1001.02
2019,05,16,11,00,1001.02
2019,05,16,11,01,1001.08
2019,05,16,11,02,1001.12
2019,05,16,11,03,1001.12
2019,05,16,11,04,1001.12
2019,05,16,11,05,1001.15
2019,05,16,11,06,1001.15
2019,05,16,11,07,1001.15
2019,05,16,11,08,1001.15
2019,05,16,11,09,1001.15
2019,05,16,11,10,1001.19
2019,05,16,11,11,1001.15
2019,05,16,11,12,1001.15
2019,05,16,11,13,1001.12
2019,05,16,11,14,1001.15
2019,05,16,11,15,1001.15
2019,05,16,11,16,1001.12
2019,05,16,11,17,1001.15
2019,05,16,11,18,1001.12
2019,05,16,11,19,1001.12
2019,05,16,11,20,1001.08
2019,05,16,11,21,1001.05
2019,05,16,11,22,1001.02
2019,05,16,11,23,1001.05
2019,05,16,11,24,1001.05
2019,05,16,11,25,1001.08
2019,05,16,11,26,1001.05
2019,05,16,11,27,1001.08
2019,05,16,11,28,1001.02
2019,05,16,11,29,1001.05
2019,05,16,11,30,1001.08
2019,05,16,11,31,1001.05
2019,05,16,11,32,1001.05
2019,05,16,11,33,1001.08
2019,05,16,11,34,1001.05
2019,05,16,11,35,1001.08
2019,05,16,11,36,1001.08
2019,05,16,11,37,1001.15
2019,05,16,11,38,1001.12
2019,05,16,11,39,1001.08
2019,05,16,11,40,1001.05
2019,05,16,11,41,1001.12
2019,05,16,11,42,1001.08
2019,05,16,11,43,1001.08
2019,05,16,11,44,1001.08
2019,05,16,11,45,1001.15
2019,05,16,11,46,1001.15
2019,05,16,11,47,1001.15
2019,05,16,11,48,1001.12
2019,05,16,11,49,1001.08
2019,05,16,11,50,1001.08
2019,05,16,11,51,1001.08
2019,05,16,11,52,1001.05
2019,05,16,11,53,1001.08
2019,05,16,11,54,1001.02
2019,05,16,11,55,1001.02
2019,05,16,11,56,1001.05
2019,05,16,11,57,1001.08
2019,05,16,11,58,1001.02
2019,05,16,11,59,1001.02
2019,05,16,12,00,1001.02
2019,05,16,12,01,1000.95
2019,05,16,12,02,1000.98
2019,05,16,12,03,1000.95
2019,05,16,12,04,1000.92
2019,05,16,12,05,1000.95
2019,05,16,12,06,1000.92
2019,05,16,12,07,1000.95
2019,05,16,12,08,1000.92
2019,05,16,12,09,1000.95
2019,05,16,12,10,1000.95
2019,05,16,12,11,1000.92
2019,05,16,12,12,1000.92
2019,05,16,12,13,1000.92
2019,05,16,12,14,1000.95
2019,05,16,12,15,1000.98
2019,05,16,12,16,1000.98
2019,05,16,12,17,1000.98
2019,05,16,12,18,1001.05
2019,05,16,12,19,1001.05
2019,05,16,12,20,1001.02
2019,05,16,12,21,1000.98
2019,05,16,12,22,1001.02
2019,05,16,12,23,1000.98
2019,05,16,12,24,1000.98
2019,05,16,12,25,1001.02
2019,05,16,12,26,1001.02
2019,05,16,12,27,1001.02
2019,05,16,12,28,1001.05
2019,05,16,12,29,1001.05
2019,05,16,12,30,1001.02
2019,05,16,12,31,1000.98
2019,05,16,12,32,1000.95
2019,05,16,12,33,1000.98
2019,05,16,12,34,1000.98
2019,05,16,12,35,1000.98
2019,05,16,12,36,1000.98
2019,05,16,12,37,1000.98
2019,05,16,12,38,1001.05
2019,05,16,12,39,1001.02
2019,05,16,12,40,1001.02
2019,05,16,12,41,1001.05
2019,05,16,12,42,1000.95
2019,05,16,12,43,1000.95
2019,05,16,12,44,1000.95
2019,05,16,12,45,1000.95
2019,05,16,12,46,1000.95
2019,05,16,12,47,1000.95
2019,05,16,12,48,1000.92
2019,05,16,12,49,1000.88
2019,05,16,12,50,1000.92
2019,05,16,12,51,1000.88
2019,05,16,12,52,1000.92
2019,05,16,12,53,1000.88
2019,05,16,12,54,1000.88
2019,05,16,12,55,1000.92
2019,05,16,12,56,1000.92
2019,05,16,12,57,1000.95
2019,05,16,12,58,1000.95
2019,05,16,12,59,1000.98
2019,05,16,13,00,1000.92
2019,05,16,13,01,1000.95
2019,05,16,13,02,1000.98
2019,05,16,13,03,1000.92
2019,05,16,13,04,1000.92
2019,05,16,13,05,1000.92
2019,05,16,13,06,1000.85
2019,05,16,13,07,1000.81
2019,05,16,13,08,1000.78
2019,05,16,13,09,1000.81
2019,05,16,13,10,1000.81
2019,05,16,13,11,1000.81
2019,05,16,13,12,1000.81
2019,05,16,13,13,1000.85
2019,05,16,13,14,1000.75
2019,05,16,13,15,1000.78
2019,05,16,13,16,1000.75
2019,05,16,13,17,1000.71
2019,05,16,13,18,1000.71
2019,05,16,13,19,1000.75
2019,05,16,13,20,1000.75
2019,05,16,13,21,1000.71
2019,05,16,13,22,1000.75
2019,05,16,13,23,1000.71
2019,05,16,13,24,1000.75
2019,05,16,13,25,1000.71
2019,05,16,13,26,1000.75
2019,05,16,13,27,1000.75
2019,05,16,13,28,1000.78
2019,05,16,13,29,1000.75
2019,05,16,13,30,1000.75
2019,05,16,13,31,1000.81
2019,05,16,13,32,1000.78
2019,05,16,13,33,1000.78
2019,05,16,13,34,1000.75
2019,05,16,13,35,1000.78
2019,05,16,13,36,1000.81
2019,05,16,13,37,1000.81
2019,05,16,13,38,1000.85
2019,05,16,13,39,1000.81
2019,05,16,13,40,1000.81
2019,05,16,13,41,1000.78
2019,05,16,13,42,1000.75
2019,05,16,13,43,1000.75
2019,05,16,13,44,1000.78
2019,05,16,13,45,1000.78
2019,05,16,13,46,1000.75
2019,05,16,13,47,1000.75
2019,05,16,13,48,1000.78
2019,05,16,13,49,1000.78
2019,05,16,13,50,1000.78
2019,05,16,13,51,1000.81
2019,05,16,15,16,1000.81
2019,05,16,15,17,1000.78
2019,05,16,15,18,1000.81
2019,05,16,15,19,1000.81
2019,05,16,15,20,1000.85
2019,05,16,15,21,1000.85
2019,05,16,15,23,1000.85
2019,05,16,15,24,1000.85
2019,05,16,15,25,1000.81
2019,05,16,15,26,1000.88
2019,05,16,15,27,1000.88
2019,05,16,15,28,1000.88
2019,05,16,15,29,1000.92
2019,05,16,15,30,1000.92
2019,05,16,15,31,1000.88
2019,05,16,15,32,1000.92
2019,05,16,15,33,1000.85
2019,05,16,15,34,1000.92
2019,05,16,15,35,1000.92
2019,05,16,15,36,1000.85
2019,05,16,15,37,1000.88
2019,05,16,15,38,1000.88
2019,05,16,15,39,1000.81
2019,05,16,15,40,1000.81
2019,05,16,15,41,1000.78
2019,05,16,15,42,1000.81
2019,05,16,15,43,1000.85
2019,05,16,15,44,1000.81
2019,05,16,15,45,1000.81
2019,05,16,15,46,1000.81
2019,05,16,15,47,1000.78
2019,05,16,15,48,1000.85
2019,05,16,15,49,1000.81
2019,05,16,15,50,1000.81
2019,05,16,15,51,1000.78
2019,05,16,15,52,1000.81
2019,05,16,15,53,1000.78
2019,05,16,15,54,1000.75
2019,05,16,15,55,1000.75
2019,05,16,15,56,1000.71
2019,05,16,15,57,1000.68
2019,05,16,15,58,1000.71
2019,05,16,15,59,1000.71
2019,05,16,16,00,1000.71
2019,05,16,16,01,1000.71
2019,05,16,16,02,1000.75
2019,05,16,16,03,1000.78
2019,05,16,16,04,1000.78
2019,05,16,16,05,1000.75
2019,05,16,16,06,1000.78
2019,05,16,16,07,1000.78
2019,05,16,16,08,1000.75
2019,05,16,16,09,1000.75
2019,05,16,16,10,1000.78
2019,05,16,16,11,1000.81
2019,05,16,16,12,1000.75
2019,05,16,16,13,1000.81
2019,05,16,16,14,1000.81
2019,05,16,16,15,1000.85
2019,05,16,16,16,1000.88
2019,05,16,16,17,1000.81
2019,05,16,16,18,1000.92
2019,05,16,16,19,1000.81
2019,05,16,16,20,1000.85
2019,05,16,16,21,1000.85
2019,05,16,16,22,1000.78
2019,05,16,16,23,1000.75
2019,05,16,16,24,1000.78
2019,05,16,16,25,1000.85
2019,05,16,16,26,1000.85
2019,05,16,16,27,1000.85
2019,05,16,16,28,1000.85
2019,05,16,16,29,1000.85
2019,05,16,16,30,1000.85
2019,05,16,16,31,1000.85
2019,05,16,16,32,1000.85
2019,05,16,16,33,1000.85
2019,05,16,16,34,1000.85
2019,05,16,16,35,1000.85
2019,05,16,16,36,1000.88
2019,05,16,16,37,1000.85
2019,05,16,16,38,1000.88
2019,05,16,16,39,1000.88
2019,05,16,16,40,1000.88
2019,05,16,16,41,1000.88
2019,05,16,16,42,1000.88
2019,05,16,16,43,1000.85
2019,05,16,16,44,1000.85
2019,05,16,16,45,1000.88
2019,05,16,16,46,1000.88
2019,05,16,16,47,1000.88
2019,05,16,16,48,1000.92
2019,05,16,16,49,1000.88
2019,05,16,16,50,1000.92
2019,05,16,16,51,1000.88
2019,05,16,16,52,1000.95
2019,05,16,16,53,1000.92
2019,05,16,16,54,1000.98
2019,05,16,16,55,1000.95
2019,05,16,16,56,1000.92
2019,05,16,16,57,1000.95
2019,05,16,16,58,1000.92
2019,05,16,16,59,1000.92
2019,05,16,17,00,1000.92
2019,05,16,17,01,1000.92
2019,05,16,17,02,1000.92
2019,05,16,17,03,1000.88
2019,05,16,17,04,1000.85
2019,05,16,17,05,1000.85
2019,05,16,17,06,1000.85
2019,05,16,17,07,1000.88
2019,05,16,17,08,1000.92
2019,05,16,17,09,1000.88
2019,05,16,17,10,1000.88
2019,05,16,17,11,1000.92
2019,05,16,17,12,1000.92
2019,05,16,17,13,1000.92
2019,05,16,17,14,1000.88
2019,05,16,17,15,1000.88
2019,05,16,17,16,1000.88
2019,05,16,17,17,1000.88
2019,05,16,17,18,1000.88
2019,05,16,17,19,1000.88
2019,05,16,17,20,1000.88
2019,05,16,17,21,1000.88
2019,05,16,17,22,1000.85
2019,05,16,17,23,1000.88
2019,05,16,17,24,1000.88
2019,05,16,17,25,1000.88
2019,05,16,17,26,1000.88
2019,05,16,17,27,1000.88
2019,05,16,17,28,1000.88
2019,05,16,17,29,1000.85
2019,05,16,17,30,1000.85
2019,05,16,17,31,1000.78
2019,05,16,17,32,1000.85
2019,05,16,17,33,1000.85
2019,05,16,17,34,1000.81
2019,05,16,17,35,1000.75
2019,05,16,17,36,1000.75
2019,05,16,17,37,1000.75
2019,05,16,17,38,1000.78
2019,05,16,17,39,1000.75
2019,05,16,17,40,1000.78
2019,05,16,17,41,1000.78
2019,05,16,17,42,1000.78
2019,05,16,17,43,1000.75
2019,05,16,17,44,1000.78
2019,05,16,17,45,1000.78
2019,05,16,17,46,1000.85
2019,05,16,17,47,1000.78
2019,05,16,17,48,1000.78
2019,05,16,17,49,1000.78
2019,05,16,17,50,1000.78
2019,05,16,17,51,1000.78
2019,05,16,17,52,1000.81
2019,05,16,17,53,1000.78
2019,05,16,17,54,1000.75
2019,05,16,17,55,1000.78
2019,05,16,17,56,1000.78
2019,05,16,17,57,1000.78
2019,05,16,17,58,1000.78
2019,05,16,17,59,1000.81
2019,05,16,18,00,1000.78
2019,05,16,18,01,1000.81
2019,05,16,18,02,1000.81
2019,05,16,18,03,1000.81
2019,05,16,18,04,1000.78
2019,05,16,18,05,1000.81
2019,05,16,18,06,1000.81
2019,05,16,18,07,1000.81
2019,05,16,18,08,1000.81
2019,05,16,18,09,1000.85
2019,05,16,18,10,1000.81
2019,05,16,18,11,1000.78
2019,05,16,18,12,1000.78
2019,05,16,18,13,1000.81
2019,05,16,18,14,1000.78
2019,05,16,18,15,1000.85
2019,05,16,18,16,1000.85
2019,05,16,18,17,1000.85
2019,05,16,18,18,1000.85
2019,05,16,18,19,1000.88
2019,05,16,18,20,1000.88
2019,05,16,18,21,1000.85
2019,05,16,18,22,1000.88
2019,05,16,18,23,1000.85
2019,05,16,18,24,1000.85
2019,05,16,18,25,1000.85
2019,05,16,18,26,1000.78
2019,05,16,18,27,1000.85
2019,05,16,18,28,1000.85
2019,05,16,18,29,1000.85
2019,05,16,18,30,1000.85
2019,05,16,18,31,1000.81
2019,05,16,18,32,1000.85
2019,05,16,18,33,1000.88
2019,05,16,18,34,1000.85
2019,05,16,18,35,1000.85
2019,05,16,18,36,1000.78
2019,05,16,18,37,1000.85
2019,05,16,18,38,1000.88
2019,05,16,18,39,1000.85
2019,05,16,18,40,1000.92
2019,05,16,18,41,1000.88
2019,05,16,18,42,1000.88
2019,05,16,18,43,1000.88
2019,05,16,18,44,1000.92
2019,05,16,18,45,1000.85
2019,05,16,18,46,1000.92
2019,05,16,18,47,1000.92
2019,05,16,18,48,1000.92
2019,05,16,18,49,1000.92
2019,05,16,18,50,1000.92
2019,05,16,18,51,1000.92
2019,05,16,18,52,1000.92
2019,05,16,18,53,1000.95
2019,05,16,18,54,1000.95
2019,05,16,18,55,1000.92
2019,05,16,18,56,1000.98
2019,05,16,18,57,1000.98
2019,05,16,18,58,1000.98
2019,05,16,18,59,1000.98
2019,05,16,19,00,1001.02
2019,05,16,19,01,1000.98
2019,05,16,19,02,1000.98
2019,05,16,19,03,1001.02
2019,05,16,19,04,1001.02
2019,05,16,19,05,1001.02
2019,05,16,19,06,1001.02
2019,05,16,19,07,1000.98
2019,05,16,19,08,1001.02
2019,05,16,19,09,1001.02
2019,05,16,19,10,1001.02
2019,05,16,19,11,1001.05
2019,05,16,19,12,1001.02
2019,05,16,19,13,1001.05
2019,05,16,19,14,1001.05
2019,05,16,19,15,1001.02
2019,05,16,19,16,1001.02
2019,05,16,19,17,1001.02
2019,05,16,19,18,1001.05
2019,05,16,19,19,1001.05
2019,05,16,19,20,1001.08
2019,05,16,19,21,1001.05
2019,05,16,19,22,1001.12
2019,05,16,19,23,1001.15
2019,05,16,19,24,1001.12
2019,05,16,19,25,1001.15
2019,05,16,19,26,1001.19
2019,05,16,19,27,1001.19
2019,05,16,19,28,1001.15
2019,05,16,19,29,1001.12
2019,05,16,19,30,1001.15
2019,05,16,19,31,1001.12
2019,05,16,19,32,1001.12
2019,05,16,19,33,1001.12
2019,05,16,19,34,1001.12
2019,05,16,19,35,1001.12
2019,05,16,19,36,1001.12
2019,05,16,19,37,1001.15
2019,05,16,19,38,1001.19
2019,05,16,19,39,1001.15
2019,05,16,19,40,1001.19
2019,05,16,19,41,1001.22
2019,05,16,19,42,1001.22
2019,05,16,19,43,1001.19
2019,05,16,19,44,1001.19
2019,05,16,19,45,1001.22
2019,05,16,19,46,1001.22
2019,05,16,19,47,1001.19
2019,05,16,19,48,1001.22
2019,05,16,19,49,1001.25
2019,05,16,19,50,1001.25
2019,05,16,19,51,1001.22
2019,05,16,19,52,1001.22
2019,05,16,19,53,1001.25
2019,05,16,19,54,1001.29
2019,05,16,19,55,1001.29
2019,05,16,19,56,1001.29
2019,05,16,19,57,1001.25
2019,05,16,19,58,1001.29
2019,05,16,19,59,1001.32
2019,05,16,20,00,1001.32
2019,05,16,20,01,1001.25
2019,05,16,20,02,1001.32
2019,05,16,20,03,1001.36
2019,05,16,20,04,1001.32
2019,05,16,20,05,1001.29
2019,05,16,20,06,1001.25
2019,05,16,20,07,1001.32
2019,05,16,20,08,1001.29
2019,05,16,20,09,1001.32
2019,05,16,20,10,1001.29
2019,05,16,20,11,1001.32
2019,05,16,20,12,1001.29
2019,05,16,20,13,1001.36
2019,05,16,20,14,1001.32
2019,05,16,20,15,1001.36
2019,05,16,20,16,1001.36
2019,05,16,20,17,1001.39
2019,05,16,20,18,1001.39
2019,05,16,20,19,1001.39
2019,05,16,20,20,1001.42
2019,05,16,20,21,1001.39
2019,05,16,20,22,1001.42